Location: Bouchavesnes-Bergen
(49.9859°N, 2.9203°E)
Time: 02:10:34
(UTC+00:00)

Envisat - Pass Details

Date: 04 February 2023
Orbit: 763 x 765 km, 98.2° (Epoch: 30 March)

Event Time Altitude Azimuth Distance (km) Brightness Sun altitude
Rises 03:24:14 0° 19° (NNE) 3,246 6.7 -37.4°
Reaches altitude 10° 03:26:41 10° 27° (NNE) 2,315 5.9 -37.0°
Enters shadow 03:29:06 25° 45° (NE) 1,506 4.9 -36.7°
